Home > Weather > Brockton > Past weeks

Flag for USA Past Weather in Brockton, Massachusetts, USA — Yesterday and Last 2 Weeks

Now
66 °F

Mild.


Feels Like: 66 °F
Forecast: 68 / 80 °F
Wind: 16 mph from South

Location: East Milton

Current Time: Jun 28, 2016 at 3:52:26 AM

Latest Report: Jun 28, 2016 at 2:54 AM


Visibility: N/A

Pressure: 30.02 "Hg

Humidity: 84%

Dew Point: 61 °F

Location of BrocktonLocation

Past Weather in Brockton — Graph

°F

Brockton Temperature Yesterday

Maximum temperature yesterday: 82 °F (at 12:54 PM)
Minimum temperature yesterday: 59 °F (at 5:54 AM)
Average temperature yesterday: 70 °F

High & Low Weather Summary for the Past Weeks

 TemperatureHumidityPressure
High85 °F (Jun 26, 2:54 PM)100% (Jun 19, 4:54 AM)30.35 "Hg (Jun 19, 4:54 AM)
Low49 °F (Jun 13, 3:54 AM)28% (Jun 21, 4:54 PM)29.64 "Hg (Jun 13, 3:54 AM)
Average67 °F56%30.00 "Hg
* Reported Jun 13 1:54 AM — Jun 28 1:54 AM, Brockton, Weather by CustomWeather, © 2016

Note: Actual official high and low records may vary slightly from our data, if they occured in-between our weather recording intervals... More about our weather records

Advertising

Brockton Weather History for the Previous 24 Hours

Scroll right to see more
 ConditionsComfort  
Time TempWeatherWind HumidityBarometerVisibility
1:54 AM
Tue, Jun 28
66 °FMild.14 mph87%30.03 "HgN/A
12:54 AM66 °FMild.15 mph90%30.04 "HgN/A
11:54 PM
Mon, Jun 27
67 °FMild.15 mph85%30.05 "HgN/A
10:54 PM68 °FMild.17 mph82%30.05 "HgN/A
9:54 PM68 °FMild.16 mph82%30.06 "HgN/A
8:54 PM70 °FMild.16 mph71%30.05 "HgN/A
7:54 PM70 °FMild.17 mph79%30.03 "HgN/A
6:54 PM71 °FMild.15 mph76%30.03 "HgN/A
5:54 PM72 °FMild.22 mph71%30.03 "HgN/A
4:54 PM75 °FMild.21 mph64%30.04 "HgN/A
3:54 PM75 °FMild.17 mph52%30.04 "HgN/A
2:54 PM82 °FPleasantly warm.17 mph29%30.04 "HgN/A
1:54 PM82 °FPleasantly warm.15 mph37%30.05 "HgN/A
12:54 PM82 °FPleasantly warm.15 mph40%30.07 "HgN/A
11:54 AM81 °FWarm.16 mph41%30.09 "HgN/A
10:54 AM79 °FWarm.18 mph44%30.10 "HgN/A
9:54 AM76 °FMild.16 mph50%30.11 "HgN/A
8:54 AM72 °FMild.14 mph59%30.13 "HgN/A
7:54 AM67 °FMild.13 mph76%30.13 "HgN/A
6:54 AM62 °FCool.13 mph86%30.14 "HgN/A
5:54 AM59 °FCool.13 mph90%30.14 "HgN/A
4:54 AM61 °FCool.15 mph70%30.13 "HgN/A
3:54 AM62 °FRefreshingly cool.15 mph58%30.12 "HgN/A
Weather by CustomWeather, © 2016

See weather overviewHow to use our weather pages